Simultaneous Nadir Overpasses (SNOs) Predictions

Prediction of SNOs between FY3D and NOAA-19 Satellite Orbit:

Table of predicted SNOs for the next 14.0 days since TLE Epoch: 7/3/2021
Index Date (FY3D) Time (FY3D) Lat,Lon (FY3D) SZA (FY3D ) Date (NOAA-19) Time (NOAA-19) Lat,Lon (NOAA-19) SZA (NOAA-19 ) Distance(km) Time Diff (sec)
1 07/03/2021 08:49:03 78.19, 24.97 56.32 07/03/2021 08:47:56 78.19, 22.15 56.62 64.27 67
2 07/03/2021 09:39:53 -78.41,-169.01 123.36 07/03/2021 09:38:51 -78.43,-169.08 123.32 2.43 62
3 07/03/2021 10:30:38 78.42, -1.74 56.66 07/03/2021 10:29:50 78.42, -1.89 56.69 3.28 48
4 07/03/2021 11:21:23 -78.45, 165.38 123.30 07/03/2021 11:20:51 -78.44, 165.49 123.31 2.94 32
5 07/03/2021 12:12:08 78.46, -27.35 56.72 07/03/2021 12:11:50 78.43, -27.32 56.70 3.35 18
6 07/03/2021 13:02:52 -78.46, 139.99 123.29 07/03/2021 13:02:51 -78.45, 140.07 123.30 1.75 1
7 07/03/2021 13:53:37 78.46, -52.74 56.73 07/03/2021 13:53:50 78.44, -52.74 56.71 2.32 13
8 07/03/2021 14:44:21 -78.46, 114.61 123.28 07/03/2021 14:44:51 -78.47, 114.65 123.29 1.09 30
9 07/03/2021 15:35:06 78.47, -78.12 56.74 07/03/2021 15:35:50 78.45, -78.17 56.72 1.76 44
10 07/03/2021 16:25:50 -78.46, 89.23 123.27 07/03/2021 16:26:51 -78.48, 89.22 123.28 1.72 61
11 07/03/2021 17:16:35 78.47,-103.51 56.75 07/03/2021 17:17:50 78.47,-103.60 56.73 2.10 75



Historial Predications of SNOs between FY3D and NOAA-19
